Naples, Italy

11:24 AM CET on February 25, 2018 (GMT +0100)
Capodichino Mil

Weather History for LIRN - January, 2013

Change the Weather History Date:

Monday, January 7, 2013

  Actual Average Record
Temperature  
Mean Temperature 53 °F -  
Max Temperature 62 °F 54 °F 69 °F (2001)
Min Temperature 44 °F 39 °F 27 °F (2017)
Degree Days  
Heating Degree Days 12    
Growing Degree Days 3 (Base 50)    
Moisture  
Dew Point 42 °F    
Average Humidity 65    
Maximum Humidity 93    
Minimum Humidity 34    
Precipitation  
Precipitation 0.00 in 0.13 in - ()
Sea Level Pressure  
Sea Level Pressure 30.12 in    
Wind  
Wind Speed 4 mph ()    
Max Wind Speed 10 mph    
Max Gust Speed -    
Visibility 5.0 miles    
Events      
Averages and records for this station are not official NWS values.
T = Trace of Precipitation, MM = Missing Value Source: Averaged Metar Reports

Daily Weather History Graph

Daily Weather History Graph

Search for Another Location

Airport or City:

Trip Planner

Search our weather history database for the weather conditions in past years. The results will help you decide how hot, cold, wet, or windy it might be!

Date:

Astronomy

Jan. 07, 2013 Rise Set
Actual Time 7:27 AM CET 4:51 PM CET
Civil Twilight 6:56 AM CET 5:21 PM CET
Nautical Twilight 6:22 AM CET 5:56 PM CET
Astronomical Twilight 5:49 AM CET 6:29 PM CET
Moon 2:30 AM CET (1/7) 12:49 PM CET (1/7)
Length of Visible Light 10h 25m
Length of Day
9h 24m
Waning Crescent, 25% of the Moon is Illuminated
Jan 7
Waning Crescent
Jan 11
New
Jan 19
First Quarter
Jan 27
Full
Feb 3
Last Quarter

Hourly Weather History & Observations

Time (CET) Temp. Windchill Dew Point Humidity Pressure Visibility Wind Dir Wind Speed Gust Speed Precip Events Conditions
12:50 AM 51.8 °F - 48.2 °F 88% 30.09 in 5.0 mi Variable 2.3 mph - N/A   Scattered Clouds
1:20 AM 53.6 °F - 50.0 °F 88% 30.06 in 5.0 mi NW 3.5 mph - N/A   Scattered Clouds
1:50 AM 53.6 °F - 50.0 °F 88% 30.06 in 5.0 mi NW 3.5 mph - N/A   Scattered Clouds
2:20 AM 53.6 °F - 50.0 °F 88% 30.06 in 5.0 mi Calm Calm - N/A   Scattered Clouds
2:50 AM 51.8 °F - 48.2 °F 88% 30.06 in 5.0 mi East 3.5 mph - N/A   Scattered Clouds
3:20 AM 51.8 °F - 48.2 °F 88% 30.06 in 5.0 mi Variable 1.2 mph - N/A   Scattered Clouds
3:50 AM 51.8 °F - 48.2 °F 88% 30.06 in 5.0 mi Variable 2.3 mph - N/A   Scattered Clouds
4:20 AM 51.8 °F - 48.2 °F 88% 30.06 in 5.0 mi SSW 3.5 mph - N/A   Partly Cloudy
4:50 AM 50.0 °F - 46.4 °F 87% 30.06 in 5.0 mi Variable 2.3 mph - N/A   Partly Cloudy
5:20 AM 48.2 °F - 44.6 °F 87% 30.06 in 5.0 mi Calm Calm - N/A   Unknown
5:50 AM 48.2 °F - 44.6 °F 87% 30.06 in 5.0 mi NNW 2.3 mph - N/A   Unknown
6:50 AM 44.6 °F 43.1 °F 42.8 °F 93% 30.09 in 5.0 mi NNW 3.5 mph - N/A   Unknown
7:20 AM 46.4 °F 45.2 °F 44.6 °F 93% 30.09 in 3.7 mi NW 3.5 mph - N/A   Unknown
7:50 AM 46.4 °F 44.3 °F 44.6 °F 93% 30.09 in 5.0 mi North 4.6 mph - N/A   Unknown
8:20 AM 48.2 °F - 44.6 °F 87% 30.09 in 5.0 mi North 5.8 mph - N/A   Unknown
8:50 AM 50.0 °F - 46.4 °F 87% 30.09 in 5.0 mi Variable 2.3 mph - N/A   Unknown
9:20 AM 51.8 °F - 46.4 °F 82% 30.09 in 5.0 mi North 3.5 mph - N/A   Unknown
9:50 AM 53.6 °F - 46.4 °F 77% 30.12 in - NNE 3.5 mph - N/A   Clear
10:20 AM 55.4 °F - 44.6 °F 67% 30.12 in - ENE 3.5 mph - N/A   Clear
10:50 AM 59.0 °F - 46.4 °F 63% 30.12 in 6.2 mi Variable 2.3 mph - N/A   Partly Cloudy
11:20 AM 60.8 °F - 42.8 °F 52% 30.12 in - NE 4.6 mph - N/A   Clear
11:50 AM 60.8 °F - 41.0 °F 48% 30.12 in - NNE 4.6 mph - N/A   Clear
12:20 PM 62.6 °F - 39.2 °F 42% 30.09 in - North 3.5 mph - N/A   Clear
12:50 PM 62.6 °F - 37.4 °F 39% 30.09 in - NNE 4.6 mph - N/A   Clear
1:50 PM 62.6 °F - 37.4 °F 39% 30.09 in - North 3.5 mph - N/A   Clear
2:20 PM 62.6 °F - 39.2 °F 42% 30.09 in - North 5.8 mph - N/A   Clear
2:50 PM 62.6 °F - 37.4 °F 39% 30.09 in - North 6.9 mph - N/A   Clear
3:20 PM 62.6 °F - 39.2 °F 42% 30.12 in - NNE 6.9 mph - N/A   Clear
3:50 PM 62.6 °F - 35.6 °F 37% 30.12 in - ENE 10.4 mph - N/A   Clear
4:20 PM 60.8 °F - 32.0 °F 34% 30.12 in - ENE 10.4 mph - N/A   Clear
4:50 PM 59.0 °F - 33.8 °F 39% 30.12 in - ENE 8.1 mph - N/A   Clear
5:20 PM 57.2 °F - 35.6 °F 44% 30.12 in - NE 5.8 mph - N/A   Clear
5:50 PM 57.2 °F - 33.8 °F 41% 30.15 in - NE 6.9 mph - N/A   Clear
6:20 PM 57.2 °F - 33.8 °F 41% 30.15 in - NE 10.4 mph - N/A   Clear
6:50 PM 55.4 °F - 35.6 °F 47% 30.18 in - NNE 6.9 mph - N/A   Clear
7:20 PM 55.4 °F - 37.4 °F 51% 30.18 in - NE 8.1 mph - N/A   Clear
7:50 PM 55.4 °F - 39.2 °F 54% 30.18 in - NNE 5.8 mph - N/A   Clear
8:20 PM 55.4 °F - 41.0 °F 58% 30.18 in - NNE 6.9 mph - N/A   Clear
8:50 PM 53.6 °F - 39.2 °F 58% 30.21 in - NNE 5.8 mph - N/A   Clear
9:20 PM 51.8 °F - 39.2 °F 62% 30.21 in - Variable 2.3 mph - N/A   Clear
9:50 PM 50.0 °F - 39.2 °F 66% 30.21 in - North 2.3 mph - N/A   Clear
10:20 PM 50.0 °F - 39.2 °F 66% 30.24 in - NNE 4.6 mph - N/A   Clear
10:50 PM 50.0 °F - 39.2 °F 66% 30.24 in - NE 5.8 mph - N/A   Clear
11:20 PM 50.0 °F - 39.2 °F 66% 30.24 in - NNE 5.8 mph - N/A   Clear
11:50 PM 48.2 °F - 37.4 °F 66% 30.24 in - North 4.6 mph - N/A   Clear